Wetbulb
43.05 38.56 39.71 45.73 47.45 47.22 45.82 43.99 42.96 44.57 46.80 46.59 46.47 47.64 48.96 48.66 52.43 53.67 55.06 56.32 56.55 57.46 59.89 60.48 60.13 60.32 60.47 60.92 59.79 59.09 57.26 57.02 57.00 56.06 55.43 55.71 55.30 55.67 55.54 56.37 56.87 56.89 56.70 56.18
38.47 35.65 44.85 49.41 48.36 46.50 45.41 43.42 42.03 43.40 46.38 46.42 45.72 46.54 49.86 51.60 49.61 52.67 53.84 54.77 55.95 57.27 58.03 57.93 57.29 57.56 58.67 60.10 58.78 57.88 56.91 56.71 56.64 56.45 57.57 58.18 56.59 55.89 55.84 56.34 55.39 54.78 54.83 54.55
35.93 37.52 42.46 47.14 45.59 44.22 44.45 42.88 41.29 42.24 43.82 44.35 44.35 45.27 47.70 50.89 49.43 49.54 51.50 54.15 55.31 55.94 56.26 56.59 56.48 58.50 60.24 59.99 58.58 56.66 56.04 56.41 56.98 57.75 56.52 56.84 56.67 55.83 55.76 55.33 54.06 51.02 51.15 50.05
38.56 41.44 41.41 44.33 44.33 45.52 41.11 46.84 45.30 42.41 41.79 38.51 45.61 37.55 45.86 49.28 48.14 46.82 48.64 49.25 50.95 53.04 56.29 56.32 55.71 56.61 57.95 58.44 57.83 56.38 56.62 56.13 55.90 55.76 57.12 57.44 56.34 54.50 55.73 54.19 50.15 47.87 47.32 46.19
38.45 41.35 40.54 40.60 44.14 45.97 42.56 45.92 44.14 43.16 42.12 41.68 39.73 38.70 43.13 45.89 46.55 47.89 47.55 49.39 50.21 51.90 53.97 53.87 54.09 55.17 55.46 54.99 56.12 53.60 52.95 53.18 55.07 57.31 57.74 57.34 56.21 55.38 52.48 48.55 45.82 45.36 45.20 44.93
39.72 42.94 41.72 42.74 46.29 46.22 46.08 42.19 41.53 40.83 39.54 33.94 39.72 39.49 40.35 43.50 45.46 47.90 48.21 48.76 49.30 49.96 51.28 52.68 53.41 52.99 51.24 51.90 52.60 51.13 51.46 51.71 53.31 54.29 55.01 54.94 52.84 49.62 46.24 44.55 43.98 43.80 44.07 44.42
37.56 37.75 40.93 41.26 42.26 45.63 45.12 40.74 32.12 31.38 31.75 33.02 36.95 37.89 40.80 45.66 45.49 47.30 49.15 49.60 50.11 49.74 49.92 50.40 49.85 50.15 49.81 49.90 49.66 49.12 49.69 48.56 49.30 49.31 48.18 47.25 45.90 44.66 43.28 42.14 41.91 41.58 42.00 41.89
34.77 31.56 35.42 39.60 39.88 40.63 42.70 42.11 36.59 29.27 30.70 33.81 34.59 33.69 40.35 44.08 44.14 45.22 47.11 47.85 48.45 48.24 48.99 48.98 49.85 50.29 49.12 48.11 46.93 44.17 44.89 43.79 43.87 43.87 43.53 43.66 43.01 42.37 41.44 41.11 40.69 40.32 40.36 40.45
33.93 31.16 36.30 39.89 40.39 40.89 38.19 38.25 39.31 33.92 29.63 32.51 36.23 37.72 41.52 39.54 40.35 42.18 43.59 44.49 44.89 46.07 47.41 48.31 48.79 48.74 47.52 46.06 43.27 42.74 42.55 42.27 42.43 42.44 41.99 41.10 40.83 40.33 39.73 39.41 39.14 39.52 39.52 38.59
36.43 30.85 34.42 38.17 40.71 40.16 39.52 39.57 34.26 33.67 29.89 28.97 33.04 32.48 38.63 37.94 38.24 39.87 41.30 42.52 45.11 46.12 47.13 47.92 47.69 46.57 44.25 42.52 41.22 40.64 41.59 40.70 40.80 40.70 40.23 39.38 39.12 38.96 38.38 38.30 38.13 38.23 38.67 38.65
39.13 37.16 32.92 37.04 34.95 34.36 34.70 33.88 34.42 35.49 34.20 31.93 30.71 37.00 39.93 38.09 38.74 38.85 40.60 42.83 44.21 44.93 46.17 46.63 46.02 45.08 42.44 40.43 39.22 40.12 39.97 39.24 38.50 38.43 37.74 37.61 37.40 37.51 37.72 37.62 37.54 37.29 37.63 37.06
38.90 35.66 31.72 31.74 34.88 37.55 37.77 36.27 36.60 35.67 31.09 31.88 30.91 36.11 38.65 39.43 40.14 39.83 40.03 41.74 44.52 45.03 45.43 45.64 44.76 41.85 38.92 38.14 37.87 38.42 38.01 37.61 37.68 37.38 37.15 37.07 37.08 37.16 37.01 36.78 36.53 36.44 35.95 36.56
38.48 33.84 29.80 30.22 33.67 35.96 35.17 35.92 37.24 33.67 32.82 30.36 29.22 35.73 38.12 39.92 40.77 42.09 41.23 42.23 43.13 43.78 44.18 44.27 41.67 39.85 38.72 38.70 38.29 37.57 37.08 37.07 36.91 37.03 36.93 36.33 36.34 36.37 36.11 35.51 35.19 35.63 35.17 34.84
38.82 33.81 31.81 31.00 31.32 34.86 32.68 34.92 36.81 35.94 29.80 31.63 33.00 37.58 39.99 39.08 39.50 41.25 41.54 42.40 42.71 42.63 42.73 43.15 42.14 40.51 40.38 39.71 38.11 37.68 37.27 37.40 36.53 36.36 36.31 35.85 35.91 35.22 34.54 34.69 34.49 34.12 33.73 33.15
36.28 32.39 29.83 30.49 31.12 32.53 32.62 32.81 34.89 33.64 36.04 33.64 37.66 35.67 41.61 44.97 41.93 41.98 43.28 42.27 41.44 41.61 42.17 42.76 42.58 42.33 40.52 38.94 38.09 37.96 38.03 37.20 36.25 35.70 35.43 35.33 34.50 34.14 34.28 33.71 33.27 32.79 32.75 32.35
33.07 31.09 28.15 26.96 27.91 27.72 26.80 31.80 34.49 34.28 35.56 36.50 37.10 36.27 43.68 44.77 42.97 41.16 41.50 40.50 40.31 41.14 41.91 42.38 42.18 42.10 40.78 38.78 38.42 37.37 36.75 35.61 35.27 35.64 35.34 33.99 33.64 33.58 33.03 32.32 31.74 31.82 31.50 31.14
32.36 28.88 28.92 29.63 21.87 21.79 25.32 27.71 31.19 33.88 36.43 37.20 33.35 38.74 42.61 41.15 41.54 41.85 42.20 41.08 40.72 41.57 42.40 42.06 41.90 42.01 41.25 39.10 37.95 36.91 36.22 35.20 35.13 35.29 34.08 33.07 33.21 32.72 31.60 31.04 30.92 30.32 30.08 30.48
25.15 26.52 24.82 28.64 21.23 21.36 31.78 31.82 33.26 33.19 35.57 37.57 37.81 38.79 39.47 38.58 39.14 40.22 40.54 40.66 41.06 42.07 42.65 43.32 42.71 42.68 42.47 41.59 38.93 38.07 35.21 34.86 34.94 34.27 32.81 32.91 32.69 31.23 30.27 30.02 29.57 29.61 29.76 29.32
29.74 28.37 19.98 25.79 24.75 26.39 30.32 27.07 29.34 29.38 31.63 35.17 35.66 37.07 35.40 34.13 33.49 35.25 37.61 38.60 39.83 42.41 43.97 44.40 44.49 43.83 43.08 40.43 38.89 36.22 34.38 34.21 33.72 32.34 32.27 31.79 31.39 29.58 29.29 28.76 28.68 28.75 28.81 28.32
26.69 27.66 29.34 18.00 22.12 21.31 29.97 29.48 31.29 31.70 27.97 32.82 33.71 32.61 32.21 32.70 31.95 35.81 37.05 37.04 37.85 39.02 42.03 42.26 42.36 42.08 40.54 39.76 37.26 34.71 33.47 33.28 32.27 32.00 31.08 30.41 29.49 29.42 28.76 28.41 27.76 27.42 27.49 25.87
25.10 22.68 25.36 18.82 23.44 26.23 31.60 30.61 31.44 27.58 30.61 32.29 33.16 33.01 32.19 32.22 35.37 36.84 36.78 35.98 36.05 37.27 39.74 39.45 38.40 38.91 39.27 37.05 36.34 34.73 33.45 32.56 32.04 30.70 28.98 28.29 28.75 28.08 28.36 27.32 26.79 26.27 25.77 25.71
24.47 23.84 22.47 19.13 22.33 21.83 29.73 29.64 29.13 34.19 31.49 33.20 32.90 33.50 32.98 34.11 34.63 35.40 34.99 34.93 35.40 35.99 36.58 37.12 36.80 36.21 35.73 36.16 36.20 33.19 32.72 31.57 30.78 28.95 27.49 26.47 26.79 26.74 26.33 25.42 25.03 24.60 25.23 25.10
25.99 29.60 27.96 27.42 29.61 30.40 31.47 31.71 33.73 32.52 33.97 33.22 33.67 34.10 33.90 34.33 35.10 34.78 35.31 34.28 34.10 35.03 33.94 34.77 34.98 32.70 33.74 34.74 34.74 31.57 29.43 29.22 27.37 25.76 23.93 24.07 24.48 24.64 24.99 24.55 24.10 24.21 25.23 25.27
25.35 25.16 28.29 27.14 32.75 30.23 31.03 32.63 32.11 33.57 33.65 34.38 34.34 34.61 34.18 33.86 34.44 33.48 33.58 33.32 33.07 32.57 32.37 31.88 32.29 31.39 29.67 30.75 30.55 29.85 28.48 26.64 23.92 23.31 23.36 22.97 23.37 22.98 23.74 24.36 24.82 25.28 25.18 24.36
27.40 27.48 26.11 26.94 30.62 30.98 32.09 33.35 35.57 35.06 33.63 33.02 33.31 32.77 33.64 33.55 32.84 33.06 32.79 32.35 32.99 31.71 30.23 31.47 31.25 30.12 28.31 28.80 28.23 27.40 25.68 24.72 23.94 23.42 22.93 23.02 23.36 23.47 23.15 24.22 24.96 24.67 25.75 25.46
26.35 28.09 28.94 30.16 34.26 34.95 35.21 35.85 35.17 33.66 34.46 35.83 32.78 30.95 30.64 31.92 33.31 32.84 32.99 32.64 32.04 30.98 29.31 29.08 28.72 27.99 27.17 27.44 25.83 24.25 24.29 24.56 23.49 22.25 22.44 22.72 22.70 22.84 23.23 23.82 24.28 26.48 26.04 25.44
MSLP
1016.11 1016.13 1013.16 1010.53 1011.23 1011.68 1012.35 1013.32 1014.39 1015.18 1015.27 1015.34 1014.92 1014.60 1014.62 1014.91 1015.07 1014.90 1015.13 1015.43 1015.65 1015.93 1016.24 1016.76 1017.24 1017.58 1017.94 1018.28 1018.73 1019.06 1019.51 1019.86 1020.38 1020.88 1021.18 1021.41 1021.61 1021.88 1022.03 1021.95 1021.86 1021.75 1021.70 1021.72
1016.63 1015.20 1012.85 1011.19 1011.31 1011.54 1012.24 1013.03 1014.36 1015.64 1015.78 1015.62 1014.90 1013.92 1013.90 1013.92 1014.12 1014.06 1014.15 1014.63 1014.95 1015.49 1015.96 1016.47 1016.99 1017.41 1017.68 1017.98 1018.41 1018.88 1019.30 1019.74 1020.17 1020.52 1020.65 1020.78 1021.26 1021.71 1021.83 1021.90 1021.97 1022.09 1021.97 1022.04
1016.08 1014.79 1013.25 1011.29 1011.32 1011.61 1012.25 1012.93 1014.25 1015.18 1015.76 1015.83 1015.19 1013.75 1012.98 1013.07 1013.43 1013.59 1013.79 1013.99 1014.40 1014.66 1015.29 1015.98 1016.52 1016.98 1017.33 1017.68 1018.17 1018.71 1019.12 1019.53 1019.98 1020.35 1020.77 1020.86 1021.41 1021.52 1021.68 1021.79 1022.16 1022.52 1022.45 1022.51
1015.34 1014.01 1014.04 1011.95 1011.91 1012.20 1012.89 1013.14 1013.75 1014.91 1015.60 1015.58 1014.96 1012.94 1011.45 1011.60 1012.22 1012.84 1012.90 1013.33 1013.70 1014.31 1014.84 1015.42 1016.17 1016.75 1017.19 1017.66 1018.29 1018.83 1019.30 1019.57 1020.02 1020.38 1020.41 1020.42 1020.66 1020.93 1021.27 1021.87 1022.42 1022.74 1022.88 1022.83
1014.99 1014.95 1014.09 1013.25 1012.46 1012.43 1013.54 1013.54 1014.11 1014.93 1015.39 1015.42 1015.29 1014.43 1011.61 1011.68 1011.34 1011.44 1011.70 1011.96 1012.67 1013.17 1014.02 1014.86 1015.92 1016.68 1017.35 1018.07 1018.46 1019.20 1019.60 1019.87 1020.08 1020.21 1020.30 1020.39 1020.60 1021.07 1021.75 1022.27 1022.66 1022.96 1023.11 1023.13
1015.15 1014.87 1014.31 1013.87 1012.94 1013.15 1013.78 1014.43 1015.05 1015.57 1015.68 1015.21 1014.30 1014.10 1011.36 1011.13 1010.66 1010.51 1010.43 1011.00 1011.69 1012.71 1013.94 1014.88 1015.70 1016.71 1017.50 1018.26 1018.84 1019.45 1019.70 1020.01 1020.26 1020.40 1020.64 1020.67 1021.08 1021.65 1022.06 1022.63 1022.78 1022.99 1023.07 1023.12
1014.56 1014.80 1014.79 1014.66 1014.22 1014.18 1013.86 1014.54 1015.34 1015.84 1015.77 1014.88 1014.55 1013.96 1011.51 1010.77 1010.07 1009.71 1009.70 1010.15 1011.11 1012.38 1013.65 1014.77 1015.62 1016.49 1017.22 1018.03 1018.75 1019.35 1019.78 1020.19 1020.49 1020.77 1021.12 1021.39 1021.79 1022.21 1022.62 1022.94 1023.12 1023.17 1023.24 1023.28
1014.64 1016.27 1016.06 1015.69 1015.08 1014.23 1013.92 1013.55 1013.78 1014.22 1014.70 1014.56 1014.77 1013.28 1010.86 1010.16 1010.12 1010.49 1010.63 1010.77 1011.35 1012.56 1013.54 1014.48 1015.42 1016.19 1017.04 1018.11 1018.85 1019.44 1019.82 1020.57 1021.01 1021.17 1021.54 1021.99 1022.40 1022.71 1023.11 1023.39 1023.52 1023.61 1023.63 1023.60
1015.20 1016.55 1016.74 1016.05 1015.63 1015.28 1015.12 1014.76 1014.88 1014.49 1015.31 1014.37 1013.11 1012.63 1010.59 1010.11 1009.95 1010.47 1010.67 1011.04 1011.60 1012.41 1013.37 1014.19 1015.19 1016.06 1017.09 1017.95 1018.75 1019.41 1019.95 1020.93 1021.36 1021.58 1022.03 1022.45 1022.72 1023.12 1023.40 1023.70 1023.73 1023.76 1023.77 1023.75
1013.47 1014.60 1016.10 1016.08 1016.11 1015.81 1015.18 1015.68 1015.76 1015.40 1015.07 1014.01 1012.49 1011.76 1009.94 1010.08 1010.23 1010.47 1010.69 1010.96 1011.37 1012.25 1013.31 1014.17 1015.27 1016.21 1017.19 1017.93 1018.68 1019.34 1020.16 1020.98 1021.35 1021.81 1022.23 1022.63 1023.09 1023.30 1023.61 1023.66 1023.75 1023.88 1023.94 1023.87
1013.00 1013.75 1016.69 1016.79 1016.50 1016.20 1016.25 1016.13 1016.14 1015.59 1014.98 1013.66 1012.44 1010.53 1010.10 1010.20 1010.41 1010.34 1010.32 1010.88 1011.54 1012.26 1013.07 1014.11 1015.22 1016.30 1017.31 1018.34 1018.82 1019.33 1020.30 1020.91 1021.39 1021.91 1022.29 1022.71 1023.20 1023.28 1023.55 1023.62 1023.82 1023.91 1023.91 1023.90
1013.88 1014.56 1016.19 1017.15 1017.27 1016.71 1016.25 1016.08 1015.77 1015.23 1015.39 1014.34 1013.07 1010.60 1010.25 1010.43 1010.53 1010.67 1010.52 1010.88 1011.54 1012.33 1013.10 1014.13 1015.13 1016.18 1017.21 1018.15 1018.87 1019.55 1020.23 1020.78 1021.36 1021.80 1022.32 1022.84 1023.06 1023.35 1023.60 1023.79 1023.99 1023.98 1023.88 1023.71
1014.12 1014.85 1016.10 1016.88 1017.24 1016.83 1016.39 1016.30 1015.84 1015.40 1015.03 1014.17 1012.90 1010.50 1009.98 1010.31 1010.19 1010.36 1010.71 1011.21 1011.91 1012.68 1013.62 1014.39 1015.44 1016.19 1017.13 1017.98 1018.76 1019.34 1019.97 1020.57 1021.17 1021.66 1022.22 1022.61 1022.91 1023.45 1023.79 1023.92 1023.90 1023.93 1023.82 1023.81
1014.51 1015.11 1015.37 1015.66 1015.78 1015.54 1016.18 1015.75 1015.64 1015.22 1014.89 1013.53 1012.06 1010.57 1009.46 1009.47 1009.86 1010.19 1010.69 1011.39 1012.17 1013.00 1013.54 1014.11 1014.96 1015.76 1016.82 1017.73 1018.57 1019.26 1019.79 1020.21 1020.88 1021.57 1021.80 1022.40 1022.95 1023.43 1023.86 1024.12 1023.97 1023.86 1024.11 1023.99
1015.26 1015.67 1016.00 1016.17 1015.87 1015.44 1015.51 1015.35 1015.26 1014.85 1013.74 1013.02 1011.41 1010.58 1008.88 1009.01 1009.79 1010.16 1010.88 1011.53 1012.11 1012.63 1013.21 1013.65 1014.29 1015.16 1016.26 1017.15 1018.05 1018.73 1019.47 1020.10 1020.72 1021.08 1021.74 1022.46 1023.07 1023.52 1024.01 1024.08 1024.02 1024.07 1024.35 1024.22
1015.88 1016.15 1016.08 1016.04 1016.02 1016.30 1016.01 1015.23 1014.87 1014.74 1014.31 1013.11 1012.24 1010.29 1009.66 1009.68 1010.25 1010.53 1010.90 1011.38 1011.59 1011.84 1012.23 1012.97 1013.66 1014.46 1015.27 1016.22 1017.13 1018.14 1019.07 1019.92 1020.62 1021.05 1021.93 1022.65 1023.06 1023.65 1023.97 1023.98 1024.14 1024.46 1024.41 1024.44
1016.34 1016.73 1017.29 1017.53 1017.37 1016.97 1015.96 1013.91 1013.96 1013.67 1013.04 1012.57 1012.02 1010.07 1010.07 1010.11 1010.24 1010.47 1010.67 1010.97 1011.21 1011.46 1011.70 1012.14 1012.73 1013.61 1014.52 1015.37 1016.32 1017.37 1018.49 1019.64 1020.41 1021.13 1022.07 1022.71 1023.21 1023.64 1023.94 1024.12 1024.28 1024.52 1024.69 1024.44
1017.49 1017.60 1018.05 1018.37 1018.00 1016.63 1013.71 1013.31 1012.98 1012.70 1012.11 1012.18 1011.40 1010.62 1010.97 1011.12 1010.98 1010.77 1011.08 1011.04 1010.95 1011.07 1011.30 1011.61 1012.34 1013.08 1014.09 1015.25 1016.30 1017.30 1018.37 1019.27 1020.26 1021.32 1022.15 1022.67 1023.21 1023.74 1024.02 1024.10 1024.52 1024.84 1024.74 1024.70
1018.13 1018.06 1019.02 1018.84 1017.63 1015.42 1012.90 1013.52 1013.21 1012.74 1011.68 1011.39 1011.43 1011.38 1011.46 1011.56 1011.52 1010.96 1011.11 1011.05 1010.73 1010.64 1010.67 1010.96 1011.40 1012.10 1013.31 1014.50 1015.82 1017.19 1018.41 1019.36 1020.38 1021.42 1022.16 1022.76 1023.34 1023.76 1024.01 1024.39 1024.78 1024.94 1025.02 1025.03
1019.01 1018.48 1018.17 1018.91 1017.58 1015.42 1013.13 1013.07 1013.07 1012.85 1012.04 1011.41 1011.72 1011.92 1012.01 1012.06 1011.62 1011.12 1011.30 1011.24 1010.95 1010.73 1010.57 1010.94 1011.39 1012.25 1013.44 1014.49 1015.65 1016.93 1018.31 1019.35 1020.43 1021.44 1022.21 1022.93 1023.53 1023.84 1024.06 1024.66 1025.01 1025.39 1025.51 1025.39
1019.52 1019.43 1018.82 1018.72 1017.35 1015.00 1012.81 1013.05 1013.29 1013.11 1012.03 1011.49 1011.80 1012.09 1012.37 1012.41 1012.10 1011.76 1011.64 1011.28 1011.14 1010.86 1010.70 1010.84 1011.58 1012.27 1013.16 1014.36 1015.36 1016.76 1018.17 1019.36 1020.64 1021.74 1022.51 1023.33 1023.69 1023.80 1024.27 1024.96 1025.40 1025.63 1025.76 1025.41
1017.71 1018.22 1018.46 1018.39 1017.19 1014.78 1012.93 1013.66 1013.18 1011.73 1011.65 1011.64 1011.99 1012.21 1012.39 1012.46 1012.19 1011.95 1011.84 1011.60 1011.36 1011.32 1011.30 1011.41 1011.97 1012.73 1013.56 1014.32 1015.26 1016.86 1018.31 1019.83 1021.00 1021.94 1022.82 1023.50 1023.70 1024.11 1024.87 1025.33 1025.65 1025.92 1025.76 1025.37
1016.97 1015.69 1015.65 1015.70 1013.83 1012.57 1012.34 1011.98 1011.77 1011.84 1011.55 1011.87 1012.16 1012.48 1012.66 1012.51 1012.12 1012.04 1012.07 1012.20 1012.18 1012.04 1012.25 1012.24 1012.51 1013.37 1014.19 1014.88 1015.58 1016.96 1018.97 1020.20 1021.29 1022.32 1023.08 1023.63 1024.21 1024.85 1025.29 1025.59 1025.83 1025.88 1025.71 1025.37
1015.90 1015.58 1015.21 1014.68 1012.29 1012.19 1012.13 1012.03 1011.94 1011.76 1011.82 1012.05 1012.31 1012.47 1012.65 1012.58 1012.55 1012.68 1012.70 1012.78 1012.79 1012.93 1013.21 1013.42 1013.66 1014.27 1015.12 1015.87 1016.69 1017.69 1019.20 1020.47 1021.63 1022.35 1023.16 1024.06 1024.55 1025.21 1025.68 1025.87 1025.91 1025.74 1025.50 1025.61
1015.00 1014.96 1014.47 1013.51 1011.86 1011.77 1011.38 1011.25 1011.35 1011.64 1012.16 1012.30 1012.41 1012.61 1012.72 1012.79 1012.69 1012.77 1012.88 1012.89 1013.14 1013.39 1013.63 1013.97 1014.44 1015.12 1016.04 1016.81 1017.72 1018.70 1019.67 1020.69 1021.58 1022.42 1023.34 1024.18 1024.83 1025.31 1025.78 1025.96 1026.03 1025.81 1025.86 1025.92
1013.63 1012.98 1012.66 1011.19 1010.20 1010.21 1010.20 1010.21 1010.77 1011.65 1011.89 1012.08 1012.58 1012.81 1012.92 1012.97 1012.81 1012.80 1013.00 1013.11 1013.33 1013.66 1014.09 1014.60 1015.15 1015.77 1016.71 1017.54 1018.49 1019.46 1020.17 1020.68 1021.38 1022.52 1023.41 1024.13 1024.77 1025.27 1025.67 1025.88 1026.06 1026.29 1026.48 1026.58
Wind_Speed
8 9 15 25 21 13 12 12 12 3 2 15 21 18 13 11 11 11 11 12 13 15 15 12 11 9 8 7 7 9 9 9 7 4 3 2 2 3 3 3 4 3 4 5
3 12 14 18 14 17 16 14 7 4 4 7 15 25 20 16 16 16 15 15 15 14 13 14 12 9 9 10 9 9 9 10 7 5 2 3 4 3 4 3 4 5 5 5
9 9 19 12 10 13 9 15 7 6 6 1 5 15 22 15 16 15 15 13 14 16 17 15 13 13 12 11 11 10 8 10 9 7 5 5 5 4 4 3 2 4 5 5
6 8 13 5 10 13 5 8 12 13 6 3 7 5 11 17 18 18 18 17 17 17 16 16 15 13 12 10 9 8 8 8 7 8 7 8 5 5 3 2 3 3 4 5
4 7 12 6 8 6 3 5 12 9 7 5 6 3 5 5 15 21 22 21 19 19 18 17 15 13 11 9 9 8 8 7 7 8 7 6 5 4 4 3 4 3 4 4
4 2 3 3 5 5 11 10 6 4 3 6 10 10 5 8 16 15 17 18 18 16 14 14 13 12 11 9 9 8 9 7 6 6 6 6 7 6 5 3 2 2 2 2
1 4 3 4 7 9 5 11 2 2 3 3 2 9 11 8 10 14 12 16 17 16 17 16 16 15 13 13 11 8 9 9 8 8 7 7 7 7 6 4 2 2 3 3
4 3 5 5 3 3 12 11 5 6 5 3 3 7 8 4 7 6 7 6 11 15 15 16 16 15 13 13 11 8 8 9 8 8 9 7 7 4 4 4 3 2 3 4
7 4 4 3 2 1 4 6 4 6 2 1 6 6 15 5 9 7 4 6 12 15 17 18 16 14 14 14 11 10 10 9 8 9 7 7 6 5 5 4 3 1 3 4
2 7 3 4 3 9 2 5 4 1 7 6 3 5 3 2 5 3 7 10 11 13 16 15 14 14 11 10 10 9 9 9 8 8 7 6 6 5 4 3 2 3 4 6
3 3 1 3 2 4 2 3 4 3 1 2 2 1 1 6 9 12 9 9 11 13 16 15 14 13 11 8 8 10 10 10 9 7 7 7 5 5 4 3 2 3 4 5
2 5 4 1 3 2 2 4 4 3 4 1 2 2 0 6 8 8 10 7 10 12 14 14 14 13 10 10 9 11 9 9 9 8 7 7 6 4 3 3 3 3 4 6
1 2 5 2 2 0 3 4 3 5 2 7 4 3 4 5 5 3 3 4 8 11 13 13 12 11 10 11 12 11 10 10 9 9 9 7 5 4 4 3 3 4 6 7
1 3 2 1 3 4 5 6 9 5 4 5 8 9 8 9 5 2 3 6 8 11 14 14 13 12 13 13 13 12 11 10 10 9 8 7 6 4 4 3 4 5 6 7
2 3 1 3 4 3 1 4 12 12 14 9 7 16 19 12 6 2 5 7 9 12 16 16 16 15 15 15 13 12 11 10 9 9 8 6 6 5 4 4 5 5 5 6
2 2 2 4 6 5 4 8 10 15 15 21 15 23 15 13 8 4 6 11 15 17 19 17 16 16 16 15 14 12 11 9 8 9 7 6 6 5 4 5 6 5 7 7
3 5 2 0 5 4 7 13 17 9 11 14 12 12 10 9 8 8 10 11 12 14 15 17 18 16 14 15 14 14 11 10 8 8 7 7 6 5 5 5 6 7 6 7
5 4 2 1 0 4 2 1 3 16 12 18 12 14 9 11 12 11 8 10 12 12 13 14 13 14 14 12 12 11 11 10 9 8 8 7 6 6 6 7 6 5 6 7
3 5 4 3 3 7 4 5 7 9 4 14 20 14 9 8 8 7 3 6 13 12 12 13 14 14 13 14 13 12 10 10 9 9 8 7 6 7 7 7 6 5 4 5
4 6 1 3 3 5 2 3 4 3 4 7 6 2 3 5 3 1 7 9 7 7 7 8 8 9 13 12 14 13 11 11 10 10 9 8 6 7 8 6 6 4 3 3
4 2 6 4 3 9 7 5 5 3 2 7 5 3 1 2 4 9 10 9 7 5 6 8 10 11 12 13 15 14 13 11 11 10 10 8 8 9 8 7 5 4 3 3
9 9 5 4 4 11 8 6 7 1 2 4 4 3 3 5 7 4 5 8 7 2 4 8 10 9 11 14 15 14 13 13 12 11 10 8 8 7 6 7 5 3 3 5
6 6 6 9 7 1 9 2 3 2 3 4 3 4 5 5 4 5 4 5 4 0 2 4 9 11 10 10 12 16 13 13 12 10 9 9 8 7 6 7 6 4 4 5
5 4 2 1 3 9 7 7 6 6 6 3 4 4 4 8 5 4 4 2 1 2 4 4 10 11 11 10 10 14 14 12 11 11 10 9 8 8 6 5 4 4 6 6
2 9 6 6 9 3 9 10 10 8 5 6 5 5 6 4 5 3 2 3 3 4 5 7 9 10 11 11 12 12 12 12 11 9 9 9 7 8 8 6 6 7 8 7
7 8 7 8 8 2 1 4 7 8 7 6 3 2 3 5 5 3 3 3 4 6 5 6 7 10 11 11 11 10 10 10 12 10 7 7 7 7 7 8 9 14 14 12
Wind_Direction
164 279 263 169 179 172 154 143 143 120 214 204 222 226 210 194 207 208 209 201 200 210 208 201 202 207 202 205 194 192 181 172 160 155 155 154 163 154 141 124 95 54 21 16
340 254 305 162 152 153 149 153 135 92 143 189 220 229 225 224 223 219 214 210 208 208 206 203 199 202 204 203 190 178 174 168 171 159 173 140 143 136 129 131 75 35 30 27
214 261 314 148 142 142 157 163 156 140 125 156 215 228 229 222 222 221 226 228 216 206 205 199 194 199 194 192 179 172 159 163 169 159 142 126 126 133 160 143 99 45 38 38
246 276 276 199 162 158 139 192 159 133 155 221 220 275 227 227 218 216 214 217 216 210 207 199 193 187 186 174 159 155 156 154 158 165 184 180 190 167 165 121 96 78 44 45
152 216 211 269 143 106 96 132 135 155 177 189 175 253 238 234 242 235 220 214 214 209 200 189 187 178 164 164 161 153 148 143 157 180 196 190 177 128 126 115 110 67 54 44
160 229 15 356 75 107 130 85 62 78 119 238 187 200 239 196 228 240 229 222 216 202 197 187 168 160 158 161 160 154 152 143 147 155 160 157 146 136 125 115 104 60 35 19
153 34 14 349 111 150 169 125 113 144 201 230 45 204 252 225 229 232 243 230 218 198 185 177 168 172 168 169 161 156 157 145 144 134 118 112 112 109 110 114 99 54 16 3
134 161 348 348 359 177 167 175 176 185 197 147 96 227 247 240 287 294 265 232 196 198 185 176 176 175 169 167 162 154 150 139 139 125 116 114 114 115 113 105 86 46 359 342
166 120 287 36 55 16 189 200 23 100 45 160 190 229 274 279 258 248 247 180 187 190 184 178 176 174 170 165 164 155 143 147 144 130 130 127 125 129 111 102 75 12 346 344
154 106 18 322 244 37 62 117 105 337 166 221 186 259 246 13 330 288 238 224 199 187 186 178 176 172 166 160 149 139 148 154 148 142 137 135 129 115 120 117 75 9 355 348
98 67 121 269 0 159 86 118 69 103 263 255 285 171 285 296 302 290 272 229 205 190 184 176 173 168 158 149 148 147 157 155 152 148 143 134 140 134 139 113 62 19 346 341
21 101 109 140 240 266 92 148 169 177 180 261 327 269 165 304 306 297 286 241 199 189 179 175 170 160 153 154 153 163 163 163 160 154 143 148 149 150 139 97 57 23 359 351
82 111 123 132 189 78 192 186 158 89 35 195 181 178 184 236 303 328 293 193 178 176 175 167 164 167 167 168 170 169 167 165 161 153 157 152 152 157 121 94 51 22 8 357
109 98 354 95 67 127 183 180 183 176 173 163 229 272 235 231 263 273 212 186 182 185 180 180 176 174 177 177 176 176 173 168 159 161 152 164 159 124 98 79 52 34 11 358
105 119 155 93 54 42 346 198 189 205 218 222 252 236 247 271 251 213 189 179 184 189 191 191 187 186 182 179 179 178 178 169 163 159 162 159 126 109 105 73 49 36 15 2
356 96 35 34 32 22 302 252 215 227 239 247 262 277 272 269 264 242 190 189 199 202 202 199 192 188 186 181 182 179 175 164 168 159 153 137 125 118 92 65 49 33 20 5
107 129 115 279 10 346 278 227 205 202 203 224 221 238 282 290 275 266 245 220 222 219 209 202 198 196 191 183 175 182 170 156 161 149 144 131 128 113 83 71 50 35 15 8
125 98 30 108 141 225 251 185 204 222 238 219 250 255 268 285 282 275 267 261 244 229 220 211 202 198 192 179 176 162 156 153 149 146 142 136 124 109 95 73 55 39 22 15
353 127 115 181 214 314 243 194 192 187 243 215 234 268 294 314 304 291 5 288 268 258 221 214 205 200 181 170 161 146 143 142 139 149 142 130 128 110 92 76 60 43 28 19
61 50 125 149 212 236 248 187 200 193 269 162 169 205 302 325 305 84 341 335 309 287 215 185 168 166 163 159 151 146 148 147 147 147 136 125 118 107 89 82 72 56 49 23
140 66 190 159 224 280 229 165 168 162 242 158 169 188 210 286 277 309 311 325 314 301 194 151 156 165 164 151 148 146 145 145 136 127 120 120 114 99 95 94 90 93 87 49
168 157 177 128 185 258 145 110 207 154 126 157 178 191 233 256 296 303 329 336 334 313 168 150 144 144 150 152 146 140 137 130 129 128 127 121 106 100 108 115 111 119 97 63
210 193 179 204 211 30 205 173 198 199 146 178 184 185 234 281 300 334 317 347 341 47 144 136 137 132 134 139 142 130 132 134 130 125 120 111 103 109 117 125 130 112 86 66
227 174 213 188 238 231 231 240 244 202 209 204 223 234 241 269 286 288 314 273 131 103 110 107 124 126 118 108 108 121 134 129 126 123 120 123 120 122 125 119 115 98 77 72
127 151 165 266 273 234 239 229 234 244 246 257 245 237 241 243 254 232 258 211 177 149 139 138 131 126 124 122 121 128 132 134 126 122 124 128 130 133 124 109 103 88 68 74
189 170 183 213 223 219 180 179 170 197 226 231 207 254 234 210 220 212 204 190 168 151 134 119 115 123 132 130 128 131 139 138 131 129 139 140 141 141 136 122 107 85 80 77